Location: Biltmore Gardens
(41.6070°N, 83.4666°W)
Time: 14:24:54
(UTC+00:00)

USA 267 - Pass Details

Date: 14 July 2020
Orbit: 1102 x 1106 km, 123.0° (Epoch: 02 August)

Event Time Altitude Azimuth Distance (km) Brightness Sun altitude
Exits shadow 05:54:08 54° 145° (SE) 1,318 3.3 -26.7°
Maximum altitude 05:55:47 81° 222° (SW) 1,117 3.1 -26.7°
Drops below altitude 10° 06:02:22 10° 311° (NW) 2,965 5.9 -26.6°
Sets 06:04:51 0° 312° (NW) 3,925 6.6 -26.5°
